EW6167 Weather Reports


Display with metric or nautical units.
time (UTC)temp
F
wind
direction
speed
MPH
gust
MPH
rain 1hr
in
rain 24hr
in
rain mn
in
humidity
%
barometer
mb
20260505090106 34 5 4.0 0.0 0.00 0.00 0.00 64 1012.2
20260505085518 34 360 5.0 0.0 0.00 0.00 0.00 64 1012.2
20260505085036 34 17 5.0 0.0 0.00 0.00 0.00 64 1012.2
20260505084553 35 13 5.0 0.0 0.00 0.00 0.00 64 1012.1
20260505084004 35 13 5.0 0.0 0.00 0.00 0.00 63 1012.1
20260505083518 35 12 6.0 0.0 0.00 0.00 0.00 62 1012.1
20260505083037 36 9 8.0 0.0 0.00 0.00 0.00 60 1012.1
20260505082550 37 355 10.0 0.0 0.00 0.00 0.00 58 1012.1
20260505082009 38 344 12.0 0.0 0.00 0.00 0.00 57 1012.1
20260505081526 38 340 14.0 0.0 0.00 0.00 0.00 57 1012.1
20260505081045 38 338 14.0 0.0 0.00 0.00 0.00 57 1012.1
20260505080604 38 336 15.0 0.0 0.00 0.00 0.00 57 1012.1
20260505080010 39 336 16.0 0.0 0.00 0.00 0.00 56 1012.2
20260505075528 39 338 16.0 0.0 0.00 0.00 0.00 56 1012.2
20260505075045 39 343 16.0 0.0 0.00 0.00 0.00 57 1012.2
20260505074601 39 327 16.0 0.0 0.00 0.00 0.00 57 1012.2
20260505074015 39 339 16.0 0.0 0.00 0.00 0.00 57 1012.1
20260505073534 39 331 15.0 0.0 0.00 0.00 0.00 58 1012.1
20260505073049 39 336 14.0 0.0 0.00 0.00 0.00 58 1012.3
20260505072503 39 326 14.0 0.0 0.00 0.00 0.00 59 1012.3
20260505072021 39 334 14.0 0.0 0.00 0.00 0.00 59 1012.3
20260505071537 39 331 14.0 0.0 0.00 0.00 0.00 59 1012.1
20260505071058 39 342 13.0 0.0 0.00 0.00 0.00 59 1012.2
20260505070519 39 329 13.0 0.0 0.00 0.00 0.00 60 1012.1
20260505070043 39 337 13.0 0.0 0.00 0.00 0.00 60 1012.2
20260505065550 39 341 15.0 0.0 0.00 0.00 0.00 60 1012.1
20260505065006 39 323 16.0 0.0 0.00 0.00 0.00 60 1011.8
20260505064524 39 334 17.0 0.0 0.00 0.00 0.00 60 1011.9
20260505064041 39 314 16.0 0.0 0.00 0.00 0.00 61 1011.8
20260505063557 39 325 15.0 0.0 0.00 0.00 0.00 61 1011.8
20260505063013 39 332 14.0 0.0 0.00 0.00 0.00 61 1011.8
20260505062529 39 315 14.0 0.0 0.00 0.00 0.00 61 1011.7
20260505062049 39 306 15.0 0.0 0.00 0.00 0.00 62 1011.8
20260505061603 39 318 16.0 0.0 0.00 0.00 0.00 62 1011.7
20260505061014 39 322 17.0 0.0 0.00 0.00 0.00 61 1011.7
20260505060529 39 315 16.0 0.0 0.00 0.00 0.00 61 1011.6
20260505060046 39 331 16.0 0.0 0.00 0.00 0.00 61 1011.5
20260505055600 39 327 17.0 0.0 0.00 0.00 0.00 61 1011.6
20260505055010 40 320 17.0 0.0 0.00 0.00 0.00 61 1011.3
20260505054528 40 327 16.0 0.0 0.00 0.00 0.00 62 1011.4
20260505054044 40 325 17.0 0.0 0.00 0.00 0.00 62 1011.4
20260505053559 40 317 18.0 0.0 0.00 0.00 0.00 62 1011.3
20260505053009 40 329 19.0 0.0 0.00 0.00 0.00 62 1011.3
20260505052524 40 327 19.0 0.0 0.00 0.00 0.00 62 1011.2
20260505052042 41 336 19.0 0.0 0.00 0.00 0.00 63 1011.3
20260505051559 41 329 20.0 0.0 0.00 0.00 0.00 63 1011.3
20260505051015 41 309 19.0 0.0 0.00 0.00 0.00 63 1011.2
20260505050529 41 323 19.0 0.0 0.00 0.00 0.00 62 1011.4
20260505041513 42 329 18.0 0.0 0.00 0.00 0.00 59 1010.8
20260505041026 42 325 18.0 0.0 0.00 0.00 0.00 59 1010.6
20260505040545 42 323 18.0 0.0 0.00 0.00 0.00 58 1010.7
20260505040105 43 327 19.0 0.0 0.00 0.00 0.00 58 1010.6
20260505035510 43 330 18.0 0.0 0.00 0.00 0.00 57 1010.4
20260505035029 43 329 18.0 0.0 0.00 0.00 0.00 57 1010.3
20260505034554 43 328 18.0 0.0 0.00 0.00 0.00 57 1010.3
20260505034101 43 327 19.0 0.0 0.00 0.00 0.00 56 1010.1
20260505033521 43 315 19.0 0.0 0.00 0.00 0.00 56 1010.0
20260505033028 44 320 18.0 0.0 0.00 0.00 0.00 55 1009.8
20260505032545 44 321 18.0 0.0 0.00 0.00 0.00 55 1009.7
20260505032002 44 333 17.0 0.0 0.00 0.00 0.00 54 1009.7
20260505031518 44 326 17.0 0.0 0.00 0.00 0.00 54 1009.7
20260505031037 44 320 18.0 0.0 0.00 0.00 0.00 54 1009.6
20260505030547 44 304 18.0 0.0 0.00 0.00 0.00 54 1009.6
20260505030104 44 313 17.0 0.0 0.00 0.00 0.00 54 1009.3
20260505025518 44 319 17.0 0.0 0.00 0.00 0.00 54 1009.3
20260505025033 44 317 18.0 0.0 0.00 0.00 0.00 54 1009.2
20260505024551 44 315 20.0 0.0 0.00 0.00 0.00 54 1008.9
20260505024003 44 316 21.0 0.0 0.00 0.00 0.00 54 1008.9
20260505023522 45 328 20.0 0.0 0.00 0.00 0.00 54 1008.8
20260505023046 45 311 19.0 0.0 0.00 0.00 0.00 54 1008.8
20260505022557 45 315 20.0 0.0 0.00 0.00 0.00 54 1008.7
20260505022010 45 313 20.0 0.0 0.00 0.00 0.00 53 1008.7
20260505021524 45 301 20.0 0.0 0.00 0.00 0.00 53 1008.7
20260505021042 46 323 19.0 0.0 0.00 0.00 0.00 52 1008.6
20260505020558 46 317 18.0 0.0 0.00 0.00 0.00 52 1008.7
20260505020014 46 311 18.0 0.0 0.00 0.00 0.00 52 1008.6
20260505015531 46 309 19.0 0.0 0.00 0.00 0.00 52 1008.5
20260505015052 46 329 21.0 0.0 0.00 0.00 0.00 52 1008.5
20260505014507 46 336 21.0 0.0 0.00 0.00 0.00 52 1008.2
20260505014022 46 319 22.0 0.0 0.00 0.00 0.00 52 1008.0
20260505013538 46 331 23.0 0.0 0.00 0.00 0.00 52 1007.9
20260505013055 46 320 24.0 0.0 0.00 0.00 0.00 51 1007.8
20260505012505 47 305 25.0 0.0 0.00 0.00 0.00 50 1007.9
20260505012026 47 321 26.0 0.0 0.00 0.00 0.00 50 1007.7
20260505011603 47 309 25.0 0.0 0.00 0.00 0.00 49 1007.4
20260505011058 48 330 24.0 0.0 0.00 0.00 0.00 49 1007.6
20260505010505 48 316 24.0 0.0 0.00 0.00 0.00 50 1007.5
20260505010021 48 323 23.0 0.0 0.00 0.00 0.00 50 1007.5
20260505005540 48 325 23.0 0.0 0.00 0.00 0.00 50 1007.3
20260505005100 49 330 23.0 0.0 0.00 0.00 0.00 48 1007.4
20260505004514 49 320 23.0 0.0 0.00 0.00 0.00 47 1007.6
20260505004033 50 327 23.0 0.0 0.00 0.00 0.00 47 1007.5
20260505003548 50 315 24.0 0.0 0.00 0.00 0.00 46 1007.1
20260505003104 50 331 23.0 0.0 0.00 0.00 0.00 46 1007.3
20260505002522 51 323 22.0 0.0 0.00 0.00 0.00 45 1007.2
20260505002036 51 337 21.0 0.0 0.00 0.00 0.00 46 1007.1
20260505001605 51 321 21.0 0.0 0.00 0.00 0.00 46 1007.1
20260505001105 52 325 20.0 0.0 0.00 0.00 0.00 46 1007.0
20260505000516 52 327 19.0 0.0 0.00 0.00 0.00 45 1007.1
20260505000037 52 327 18.0 0.0 0.00 0.00 0.00 46 1007.1
20260504235545 52 338 19.0 0.0 0.00 0.00 0.00 45 1007.0
20260504235007 52 336 19.0 0.0 0.00 0.00 0.00 45 1006.9
20260504234520 52 336 19.0 0.0 0.00 0.00 0.00 45 1006.9
20260504234036 52 328 19.0 0.0 0.00 0.00 0.00 45 1006.8
20260504233554 53 325 19.0 0.0 0.00 0.00 0.00 45 1006.7
20260504233012 53 329 18.0 0.0 0.00 0.00 0.00 45 1006.7
20260504232525 53 337 19.0 0.0 0.00 0.00 0.00 45 1006.7
20260504232044 53 349 20.0 0.0 0.00 0.00 0.00 45 1006.6
20260504231502 53 330 20.0 0.0 0.00 0.00 0.00 45 1006.5
20260504231019 53 338 19.0 0.0 0.00 0.00 0.00 44 1006.7
20260504230533 53 331 19.0 0.0 0.00 0.00 0.00 46 1006.5
20260504230051 53 323 19.0 0.0 0.00 0.00 0.00 44 1006.5
20260504225502 55 337 17.0 0.0 0.00 0.00 0.00 42 1006.4
20260504225015 56 340 17.0 0.0 0.00 0.00 0.00 42 1006.3
20260504224533 56 321 17.0 0.0 0.00 0.00 0.00 42 1006.2
20260504224054 56 331 16.0 0.0 0.00 0.00 0.00 43 1006.1
20260504223507 56 355 15.0 0.0 0.00 0.00 0.00 42 1006.0
20260504223025 56 351 14.0 0.0 0.00 0.00 0.00 43 1006.0
20260504222537 56 339 16.0 0.0 0.00 0.00 0.00 42 1006.2
20260504222052 57 355 15.0 0.0 0.00 0.00 0.00 43 1006.1
20260504221508 57 340 17.0 0.0 0.00 0.00 0.00 42 1006.2
20260504221025 56 326 16.0 0.0 0.00 0.00 0.00 41 1006.2
20260504220540 56 321 15.0 0.0 0.00 0.00 0.00 42 1006.2
20260504220104 56 323 15.0 0.0 0.00 0.00 0.00 41 1006.2
20260504215514 57 342 16.0 0.0 0.00 0.00 0.00 40 1006.3
20260504215031 56 329 15.0 0.0 0.00 0.00 0.00 42 1006.4
20260504214547 57 5 16.0 0.0 0.00 0.00 0.00 40 1006.3
20260504214005 56 321 16.0 0.0 0.00 0.00 0.00 43 1006.4
20260504213517 56 346 17.0 0.0 0.00 0.00 0.00 41 1006.5
20260504213034 57 344 17.0 0.0 0.00 0.00 0.00 40 1006.6
20260504212548 57 338 17.0 0.0 0.00 0.00 0.00 41 1006.6
20260504212107 57 329 16.0 0.0 0.00 0.00 0.00 41 1006.4
20260504211515 57 335 16.0 0.0 0.00 0.00 0.00 41 1006.6
20260504211033 57 336 16.0 0.0 0.00 0.00 0.00 41 1006.8
20260504210550 57 5 15.0 0.0 0.00 0.00 0.00 40 1006.8
20260504210106 58 331 15.0 0.0 0.00 0.00 0.00 41 1006.7
20260504205517 57 332 15.0 0.0 0.00 0.00 0.00 41 1006.8
20260504205034 56 5 15.0 0.0 0.00 0.00 0.00 42 1006.8
20260504204548 57 16 15.0 0.0 0.00 0.00 0.00 40 1006.8
20260504204002 56 349 14.0 0.0 0.00 0.00 0.00 42 1006.7
20260504203517 57 342 13.0 0.0 0.00 0.00 0.00 41 1006.7
20260504203034 56 340 12.0 0.0 0.00 0.00 0.00 40 1006.7
20260504202550 56 348 11.0 0.0 0.00 0.00 0.00 41 1006.8
20260504202001 55 333 10.0 0.0 0.00 0.00 0.00 41 1006.8
20260504201519 55 332 12.0 0.0 0.00 0.00 0.00 40 1006.9
20260504201036 56 16 12.0 0.0 0.00 0.00 0.00 42 1006.8
20260504200554 56 338 13.0 0.0 0.00 0.00 0.00 40 1006.8
20260504200012 56 337 12.0 0.0 0.00 0.00 0.00 43 1006.9
20260504195525 56 317 12.0 0.0 0.00 0.00 0.00 41 1006.8
20260504195042 56 360 12.0 0.0 0.00 0.00 0.00 40 1006.9
20260504194606 56 346 12.0 0.0 0.00 0.00 0.00 41 1006.9
20260504194010 56 343 11.0 0.0 0.00 0.00 0.00 41 1006.8
20260504193523 55 300 11.0 0.0 0.00 0.00 0.00 44 1006.9
20260504193043 55 339 10.0 0.0 0.00 0.00 0.00 44 1006.9
20260504192558 54 309 10.0 0.0 0.00 0.00 0.00 43 1007.0
20260504192010 54 313 9.0 0.0 0.00 0.00 0.00 41 1007.1
20260504191528 54 9 8.0 0.0 0.00 0.00 0.00 43 1007.2
20260504191044 54 5 7.0 0.0 0.00 0.00 0.00 44 1007.3
20260504190559 53 17 8.0 0.0 0.00 0.00 0.00 45 1007.3
20260504190009 53 337 10.0 0.0 0.00 0.00 0.00 43 1007.4
20260504185526 53 321 11.0 0.0 0.00 0.00 0.00 44 1007.6
20260504185047 53 337 9.0 0.0 0.00 0.00 0.00 44 1007.6
20260504184602 53 15 9.0 0.0 0.00 0.00 0.00 46 1007.6
20260504184014 53 360 9.0 0.0 0.00 0.00 0.00 46 1007.7
20260504183528 52 355 10.0 0.0 0.00 0.00 0.00 46 1007.7
20260504183050 52 360 10.0 0.0 0.00 0.00 0.00 47 1007.8
20260504182604 52 327 10.0 0.0 0.00 0.00 0.00 47 1007.8
20260504182012 51 334 10.0 0.0 0.00 0.00 0.00 49 1007.9
20260504181529 51 355 10.0 0.0 0.00 0.00 0.00 47 1007.9
20260504181049 50 341 11.0 0.0 0.00 0.00 0.00 47 1008.0
20260504180607 51 310 11.0 0.0 0.00 0.00 0.00 49 1008.0
20260504180019 50 313 10.0 0.0 0.00 0.00 0.00 49 1008.1
20260504175534 50 301 10.0 0.0 0.00 0.00 0.00 49 1008.2
20260504175051 50 331 9.0 0.0 0.00 0.00 0.00 50 1008.2
20260504174509 50 355 9.0 0.0 0.00 0.00 0.00 48 1008.5
20260504174018 50 21 9.0 0.0 0.00 0.00 0.00 48 1008.5
20260504173534 50 340 8.0 0.0 0.00 0.00 0.00 50 1008.3
20260504173051 49 338 8.0 0.0 0.00 0.00 0.00 50 1008.4
20260504172603 49 321 9.0 0.0 0.00 0.00 0.00 49 1008.4
20260504172014 49 311 10.0 0.0 0.00 0.00 0.00 51 1008.4
20260504171541 49 329 10.0 0.0 0.00 0.00 0.00 50 1008.5
20260504171042 49 322 11.0 0.0 0.00 0.00 0.00 51 1008.6
20260504170558 48 321 12.0 0.0 0.00 0.00 0.00 51 1008.5
20260504151052 45 344 10.0 0.0 0.00 0.00 0.00 55 1008.9
20260504150502 45 333 11.0 0.0 0.00 0.00 0.00 54 1008.9
20260504141026 43 327 17.0 0.0 0.00 0.00 0.00 57 1009.1
20260504140544 43 316 16.0 0.0 0.00 0.00 0.00 57 1009.0
20260504130542 41 336 8.0 0.0 0.00 0.00 0.00 62 1008.5
20260504120105 36 96 3.0 0.0 0.00 0.00 0.00 74 1007.7
20260504110520 36 179 5.0 0.0 0.00 0.00 0.00 78 1006.3
20260504100523 34 182 5.0 0.0 0.00 0.00 0.00 79 1006.3